Tracking 31027 objects as of 19-Jul-2025
HD Live streaming from Space Station
objects crossing your sky now

METEOR 2-17 DEB

Track METEOR 2-17 DEB now!
10-day predictions


NORAD ID: 45521
Int'l Code: 1988-005BB
Perigee: 904.9 km
Apogee: 924.2 km
Inclination: 82.5 °
Period: 103.1 minutes
Semi major axis: 7285 km
RCS: Unknown
Launch date: January 30, 1988
Source: Commonwealth of Independent States (former USSR) (CIS)
Launch site: PLESETSK MISSILE AND SPACE COMPLEX (PKMTR)

Note: This is SATELLITE DEBRIS
Your satellite tracking list
EKRAN 2 DEB
Track 1 satellite(s)




NASA's NSSDC Master Catalog

Two Line Element Set (TLE):
1 45521U 88005BB  25194.73743951  .00001632  00000-0  11786-2 0  9995
2 45521  82.5090 199.3590 0013250 203.5347 156.5215 13.96077283590571
Source of the keplerian elements: AFSPC